This demonstration page uses our WeatherBlox Daily Observations layout. Learn more.

Left ArrowRight Arrow

36.19886, -115.1175

Hourly Observations for February 3, 2022

Temp ( °F °C ) Dew Point ( °F °C ) Humidity (%) Winds ( mph kmh ) Pressure ( in mb ) Visibility ( mi km ) Precip ( " mm )
12:53 am 00:53 Clear 38 3.3 2 -16.7 22 22 NNE 7 11 30.30 1026 10 16 0.00 0.00
1:53 am 01:53 Clear 36 2.2 2 -16.7 23 23 W 3 6 30.32 1027 10 16 0.00 0.00
2:53 am 02:53 Clear 35 1.7 3 -16.1 26 26 Calm 30.31 1027 10 16 0.00 0.00
3:53 am 03:53 Clear 33 0.6 4 -15.6 29 29 Calm 30.32 1027 10 16 0.00 0.00
4:53 am 04:53 Clear 35 1.7 3 -16.1 26 26 Calm 30.32 1027 10 16 0.00 0.00
5:53 am 05:53 Clear 34 1.1 4 -15.6 28 28 Calm 30.35 1028 10 16 0.00 0.00
6:53 am 06:53 Sunny 34 1.1 3 -16.1 27 27 Calm 30.37 1028 10 16 0.00 0.00
7:53 am 07:53 Sunny 36 2.2 5 -15 27 27 SSW 5 7 30.40 1029 10 16 0.00 0.00
8:53 am 08:53 Sunny 38 3.3 4 -15.6 24 24 Calm 30.42 1030 10 16 0.00 0.00
9:53 am 09:53 Sunny 43 6.1 4 -15.6 20 20 ESE 6 9 30.40 1030 10 16 0.00 0.00
10:53 am 10:53 Sunny 45 7.2 5 -15 19 19 ESE 6 9 30.40 1029 10 16 0.00 0.00
11:53 am 11:53 Sunny 50 10 7 -13.9 17 17 VRB 3 6 30.36 1028 10 16 0.00 0.00
12:53 pm 12:53 Sunny 53 11.7 9 -12.8 17 17 NE 8 13 30.33 1027 10 16 0.00 0.00
1:53 pm 13:53 Sunny 53 11.7 8 -13.3 16 16 NE 7 11 30.33 1027 10 16 0.00 0.00
2:53 pm 14:53 Sunny 54 12.2 9 -12.8 16 16 ENE 10 17 30.33 1027 10 16 0.00 0.00
3:53 pm 15:53 Sunny 55 12.8 10 -12.2 16 16 ENE 9 15 30.34 1027 10 16 0.00 0.00
4:53 pm 16:53 Sunny 52 11.1 9 -12.8 17 17 ESE 10 17 30.35 1028 10 16 0.00 0.00
5:53 pm 17:53 Clear 50 10 8 -13.3 18 18 E 7 11 30.37 1029 10 16 0.00 0.00
6:53 pm 18:53 Clear 48 8.9 10 -12.2 21 21 E 5 7 30.42 1030 10 16 0.00 0.00
7:53 pm 19:53 Clear 47 8.3 11 -11.7 23 23 W 6 9 30.45 1031 10 16 0.00 0.00
8:53 pm 20:53 Clear 47 8.3 11 -11.7 23 23 NE 9 15 30.47 1032 10 16 0.00 0.00
9:53 pm 21:53 Clear 45 7.2 12 -11.1 26 26 NNE 6 9 30.49 1033 10 16 0.00 0.00
10:53 pm 22:53 Clear 43 6.1 11 -11.7 27 27 Calm 30.52 1034 10 16 0.00 0.00
11:53 pm 23:53 Clear 40 4.4 11 -11.7 30 30 undefined N/A 30.53 1034 10 16 0.00 0.00

Powered by AerisWeather